Weather History for KUNU - October, 2012

Change the Weather History Date:

Wednesday, October 17, 2012

  Actual Average Record
Temperature  
Mean Temperature 58 °F -  
Max Temperature 66 °F 56 °F 72 °F (1971)
Min Temperature 51 °F 39 °F 22 °F (1992)
Degree Days  
Heating Degree Days 6    
Growing Degree Days 8 (Base 50)    
Moisture  
Dew Point 48 °F    
Average Humidity 75    
Maximum Humidity 100    
Minimum Humidity 49    
Precipitation  
Precipitation 0.40 in - - ()
Sea Level Pressure  
Sea Level Pressure 29.40 in    
Wind  
Wind Speed 10 mph (South)    
Max Wind Speed 22 mph    
Max Gust Speed 32 mph    
Visibility 9 miles    
Events Rain , Thunderstorm    
Averages and records for this station are not official NWS values.
T = Trace of Precipitation, MM = Missing Value Source: NWS Daily Summary

Daily Weather History Graph

Daily Weather History Graph

Search for Another Location

Airport or City:

Trip Planner

Search our weather history database for the weather conditions in past years. The results will help you decide how hot, cold, wet, or windy it might be!

Date:

Astronomy

Oct. 17, 2012 Rise Set
Actual Time 7:11 AM CDT 6:07 PM CDT
Civil Twilight 6:42 AM CDT 6:36 PM CDT
Nautical Twilight 6:09 AM CDT 7:09 PM CDT
Astronomical Twilight 5:36 AM CDT 7:42 PM CDT
Moon 9:51 AM CDT (10/17) 7:37 PM CDT (10/17)
Length of Visible Light 11h 53m
Length of Day
10h 55m
Waxing Crescent, 7% of the Moon is Illuminated
Oct 17
Waxing Crescent
Oct 21
First Quarter
Oct 29
Full
Nov 6
Last Quarter
Nov 13
New

Hourly Weather History & Observations

Time (CDT) Temp. Dew Point Humidity Pressure Visibility Wind Dir Wind Speed Gust Speed Precip Events Conditions
12:15 AM 55.4 °F 48.2 °F 77% 29.47 in 10.0 mi SSE 8.1 mph - N/A   Clear
12:35 AM 57.2 °F 50.0 °F 77% 29.47 in 10.0 mi SSE 12.7 mph - N/A   Clear
12:55 AM 57.2 °F 50.0 °F 77% 29.47 in 10.0 mi South 11.5 mph - N/A   Clear
1:15 AM 57.2 °F 48.2 °F 72% 29.47 in 10.0 mi South 9.2 mph - N/A   Clear
1:35 AM 57.2 °F 48.2 °F 72% 29.47 in 10.0 mi SSE 10.4 mph - N/A   Clear
1:55 AM 55.4 °F 48.2 °F 77% 29.48 in 10.0 mi South 9.2 mph - N/A   Clear
2:15 AM 55.4 °F 48.2 °F 77% 29.47 in 10.0 mi South 10.4 mph - N/A   Clear
2:35 AM 55.4 °F 46.4 °F 72% 29.47 in 10.0 mi South 10.4 mph 16.1 mph N/A   Clear
2:55 AM 55.4 °F 46.4 °F 72% 29.47 in 10.0 mi South 9.2 mph - N/A   Clear
3:15 AM 55.4 °F 46.4 °F 72% 29.46 in 10.0 mi South 9.2 mph - N/A   Clear
3:35 AM 55.4 °F 46.4 °F 72% 29.46 in 10.0 mi South 9.2 mph - N/A   Clear
3:55 AM 55.4 °F 46.4 °F 72% 29.46 in 10.0 mi South 10.4 mph - N/A   Clear
4:15 AM 53.6 °F 46.4 °F 77% 29.45 in 10.0 mi South 9.2 mph - N/A   Clear
4:35 AM 53.6 °F 46.4 °F 77% 29.46 in 10.0 mi SSE 6.9 mph - N/A   Clear
4:55 AM 51.8 °F 44.6 °F 76% 29.46 in 10.0 mi SSE 8.1 mph - N/A   Clear
5:15 AM 53.6 °F 46.4 °F 77% 29.47 in 10.0 mi SSE 9.2 mph - N/A   Clear
5:35 AM 53.6 °F 44.6 °F 72% 29.47 in 10.0 mi SSE 10.4 mph - N/A   Clear
5:55 AM 51.8 °F 44.6 °F 76% 29.47 in 10.0 mi SSE 9.2 mph - N/A   Clear
6:15 AM 51.8 °F 44.6 °F 76% 29.47 in 10.0 mi SSE 9.2 mph - N/A   Clear
6:35 AM 51.8 °F 44.6 °F 76% 29.47 in 10.0 mi SSE 9.2 mph - N/A   Clear
6:55 AM 51.8 °F 44.6 °F 76% 29.46 in 10.0 mi SSE 9.2 mph - N/A   Clear
7:15 AM 51.8 °F 44.6 °F 76% 29.45 in 10.0 mi SSE 8.1 mph - N/A   Clear
7:35 AM 51.8 °F 44.6 °F 76% 29.45 in 10.0 mi SSE 9.2 mph - N/A   Clear
7:55 AM 53.6 °F 44.6 °F 72% 29.45 in 10.0 mi SSE 10.4 mph - N/A   Clear
8:15 AM 53.6 °F 44.6 °F 72% 29.45 in 10.0 mi South 11.5 mph - N/A   Clear
8:35 AM 55.4 °F 44.6 °F 67% 29.46 in 10.0 mi South 12.7 mph - N/A   Clear
8:55 AM 55.4 °F 44.6 °F 67% 29.46 in 10.0 mi South 12.7 mph - N/A   Clear
9:15 AM 55.4 °F 44.6 °F 67% 29.46 in 10.0 mi South 13.8 mph 19.6 mph N/A   Clear
9:35 AM 55.4 °F 44.6 °F 67% 29.46 in 10.0 mi South 11.5 mph - N/A   Clear
9:55 AM 55.4 °F 44.6 °F 67% 29.45 in 10.0 mi South 13.8 mph - N/A   Scattered Clouds
10:15 AM 57.2 °F 44.6 °F 63% 29.45 in 10.0 mi SSE 11.5 mph - N/A   Clear
10:35 AM 59.0 °F 44.6 °F 59% 29.44 in 10.0 mi SSE 16.1 mph 19.6 mph N/A   Clear
10:55 AM 60.8 °F 44.6 °F 55% 29.44 in 10.0 mi South 18.4 mph 21.9 mph N/A   Scattered Clouds
11:15 AM 60.8 °F 44.6 °F 55% 29.43 in 10.0 mi South 19.6 mph - N/A   Scattered Clouds
11:35 AM 62.6 °F 46.4 °F 55% 29.42 in 10.0 mi SSE 15.0 mph 20.7 mph N/A   Scattered Clouds
11:55 AM 62.6 °F 44.6 °F 52% 29.42 in 10.0 mi South 19.6 mph - N/A   Scattered Clouds
12:15 PM 62.6 °F 46.4 °F 55% 29.40 in 10.0 mi SSE 16.1 mph 21.9 mph N/A   Scattered Clouds
12:35 PM 64.4 °F 46.4 °F 52% 29.40 in 10.0 mi South 19.6 mph 24.2 mph N/A   Scattered Clouds
12:55 PM 64.4 °F 46.4 °F 52% 29.39 in 10.0 mi South 16.1 mph 21.9 mph N/A   Scattered Clouds
1:15 PM 66.2 °F 46.4 °F 49% 29.39 in 10.0 mi South 17.3 mph - N/A   Scattered Clouds
1:35 PM 64.4 °F 46.4 °F 52% 29.39 in 10.0 mi South 18.4 mph 24.2 mph N/A   Clear
1:55 PM 64.4 °F 46.4 °F 52% 29.40 in 10.0 mi South 21.9 mph 32.2 mph N/A Thunderstorm Scattered Clouds
2:15 PM 62.6 °F 46.4 °F 55% 29.40 in 10.0 mi South 15.0 mph 26.5 mph N/A   Mostly Cloudy
2:35 PM 62.6 °F 46.4 °F 55% 29.39 in 10.0 mi South 12.7 mph - N/A   Overcast
2:55 PM 62.6 °F 48.2 °F 59% 29.38 in 10.0 mi South 11.5 mph - N/A   Mostly Cloudy
3:15 PM 62.6 °F 48.2 °F 59% 29.37 in 10.0 mi South 11.5 mph - N/A   Clear
3:35 PM 62.6 °F 48.2 °F 59% 29.36 in 10.0 mi South 10.4 mph - N/A   Clear
3:55 PM 62.6 °F 50.0 °F 63% 29.36 in 10.0 mi SW 10.4 mph - N/A   Drizzle
4:15 PM 59.0 °F 53.6 °F 82% 29.36 in 10.0 mi SSW 15.0 mph 23.0 mph N/A   Overcast
4:35 PM 59.0 °F 51.8 °F 77% 29.36 in 10.0 mi South 12.7 mph - N/A Rain Light Rain
4:55 PM 59.0 °F 51.8 °F 77% 29.36 in 10.0 mi South 12.7 mph - N/A   Overcast
5:15 PM 59.0 °F 51.8 °F 77% 29.36 in 10.0 mi South 10.4 mph - N/A   Overcast
5:35 PM 59.0 °F 51.8 °F 77% 29.35 in 10.0 mi SSE 9.2 mph - N/A Rain Rain
5:55 PM 59.0 °F 51.8 °F 77% 29.35 in 10.0 mi South 8.1 mph - N/A   Drizzle
6:15 PM 59.0 °F 51.8 °F 77% 29.35 in 10.0 mi South 6.9 mph - N/A   Overcast
6:35 PM 57.2 °F 51.8 °F 82% 29.34 in 10.0 mi South 4.6 mph - N/A   Drizzle
6:55 PM 55.4 °F 53.6 °F 94% 29.34 in 10.0 mi SSW 8.1 mph - N/A Rain Light Rain
7:15 PM 55.4 °F 53.6 °F 94% 29.33 in 10.0 mi SSW 5.8 mph - N/A   Overcast
7:35 PM 55.4 °F 53.6 °F 94% 29.33 in 10.0 mi South 5.8 mph - N/A   Overcast
7:55 PM 55.4 °F 55.4 °F 100% 29.32 in 7.0 mi South 4.6 mph - N/A   Drizzle
8:15 PM 55.4 °F 55.4 °F 100% 29.31 in 7.0 mi SSE 4.6 mph - N/A   Heavy Drizzle
8:35 PM 55.4 °F 55.4 °F 100% 29.30 in 3.0 mi SSE 4.6 mph - 0.01 in Rain Rain
8:55 PM 55.4 °F 55.4 °F 100% 29.30 in 2.0 mi Calm Calm - 0.06 in Rain Rain
9:15 PM 55.4 °F 55.4 °F 100% 29.30 in 1.0 mi West 8.1 mph - 0.13 in Rain Heavy Rain
9:35 PM 55.4 °F 55.4 °F 100% 29.29 in 5.0 mi SW 10.4 mph - 0.19 in Rain Light Rain
9:55 PM 51.8 °F 51.8 °F 100% 29.28 in 10.0 mi WNW 10.4 mph 23.0 mph 0.22 in Rain Rain
10:15 PM 51.8 °F 51.8 °F 100% 29.29 in 10.0 mi West 8.1 mph - 0.01 in Rain Light Rain
10:35 PM 51.8 °F 51.8 °F 100% 29.28 in 5.0 mi WNW 4.6 mph - 0.03 in Rain Rain
10:55 PM 51.8 °F 51.8 °F 100% 29.27 in 7.0 mi West 3.5 mph - 0.05 in Rain Light Rain
11:15 PM 51.8 °F 51.8 °F 100% 29.27 in 5.0 mi Calm Calm - 0.03 in Rain Rain
11:35 PM 51.8 °F 51.8 °F 100% 29.27 in 7.0 mi WSW 6.9 mph - 0.06 in Rain Light Rain
11:55 PM 51.8 °F 51.8 °F 100% 29.27 in 10.0 mi West 3.5 mph - 0.07 in Rain Light Rain